NOZ1327 EGCC-ENZV

Flight info

Callsign NOZ1327
Flight time 1h 12m
Altitude 39000
Route POL P17 MEJAC DCT LAMRO DCT NIVUN DCT UNBUD
Aircraft B738/M-SDE2E3FGHIRWXY/LB1

Departure

Time 2026-04-22 16:58
Airport Manchester Airport (EGCC)

Arrival

Time 2026-04-22 18:10
Airport Stavanger Airport, Sola (ENZV)
Time Latitude Longitude Altitude Speed Heading
2026-04-22 16:08 53.36441 -2.27735 246 ft 0 kts 45°
2026-04-22 16:40 53.36426 -2.27760 246 ft 4 kts 45°
2026-04-22 16:40 53.36388 -2.27818 246 ft 4 kts 19°
2026-04-22 16:41 53.36365 -2.27819 246 ft 4 kts 322°
2026-04-22 16:41 53.36351 -2.27795 246 ft 4 kts 301°
2026-04-22 16:41 53.36342 -2.27755 246 ft 4 kts 284°
2026-04-22 16:41 53.36340 -2.27742 246 ft 0 kts 284°
2026-04-22 16:45 53.36340 -2.27743 246 ft 1 kts 284°
2026-04-22 16:46 53.36351 -2.27787 246 ft 8 kts 307°
2026-04-22 16:46 53.36392 -2.27893 246 ft 12 kts 277°
2026-04-22 16:46 53.36349 -2.28007 246 ft 12 kts 226°
2026-04-22 16:46 53.36303 -2.28054 246 ft 0 kts 197°
2026-04-22 16:47 53.36288 -2.28062 246 ft 5 kts 196°
2026-04-22 16:48 53.36244 -2.28096 246 ft 9 kts 214°
2026-04-22 16:48 53.36172 -2.28151 246 ft 13 kts 174°
2026-04-22 16:48 53.36102 -2.28059 246 ft 13 kts 135°
2026-04-22 16:48 53.36040 -2.27957 246 ft 12 kts 135°
2026-04-22 16:49 53.35979 -2.27860 246 ft 12 kts 148°
2026-04-22 16:49 53.35924 -2.27844 246 ft 12 kts 184°
2026-04-22 16:49 53.35843 -2.27857 246 ft 12 kts 186°
2026-04-22 16:49 53.35764 -2.27871 246 ft 11 kts 185°
2026-04-22 16:50 53.35689 -2.27884 246 ft 10 kts 187°
2026-04-22 16:50 53.35618 -2.27896 246 ft 10 kts 185°
2026-04-22 16:50 53.35549 -2.27907 246 ft 10 kts 187°
2026-04-22 16:50 53.35475 -2.27921 244 ft 12 kts 191°
2026-04-22 16:51 53.35405 -2.28004 241 ft 13 kts 224°
2026-04-22 16:51 53.35337 -2.28112 239 ft 14 kts 223°
2026-04-22 16:51 53.35261 -2.28243 235 ft 17 kts 227°
2026-04-22 16:51 53.35187 -2.28393 231 ft 16 kts 231°
2026-04-22 16:52 53.35117 -2.28539 230 ft 15 kts 231°
2026-04-22 16:52 53.35054 -2.28669 233 ft 14 kts 231°
2026-04-22 16:52 53.34978 -2.28745 230 ft 9 kts 165°
2026-04-22 16:52 53.34965 -2.28735 231 ft 0 kts 146°
2026-04-22 16:56 53.34958 -2.28727 233 ft 4 kts 145°
2026-04-22 16:56 53.34910 -2.28665 231 ft 14 kts 141°
2026-04-22 16:56 53.34855 -2.28571 233 ft 8 kts 88°
2026-04-22 16:56 53.34864 -2.28548 233 ft 0 kts 44°
2026-04-22 16:57 53.34889 -2.28500 236 ft 27 kts 51°
2026-04-22 16:57 53.35174 -2.27907 244 ft 101 kts 51°
2026-04-22 16:57 53.35734 -2.26740 402 ft 146 kts 54°
2026-04-22 16:58 53.36371 -2.25364 1163 ft 151 kts 58°
2026-04-22 16:58 53.37052 -2.23889 1761 ft 175 kts 57°
2026-04-22 16:58 53.37865 -2.22147 2015 ft 204 kts 56°
2026-04-22 16:58 53.38758 -2.20245 2584 ft 213 kts 56°
2026-04-22 16:59 53.39722 -2.18177 2991 ft 235 kts 57°
2026-04-22 16:59 53.40746 -2.15974 3752 ft 245 kts 57°
2026-04-22 16:59 53.41805 -2.13689 4493 ft 251 kts 58°
2026-04-22 16:59 53.42887 -2.11351 4936 ft 255 kts 57°
2026-04-22 17:00 53.44239 -2.09346 5433 ft 273 kts 29°
2026-04-22 17:00 53.48153 -2.09290 6540 ft 293 kts 357°
2026-04-22 17:00 53.50193 -2.09542 7038 ft 297 kts
2026-04-22 17:01 53.52249 -2.09665 7526 ft 294 kts
2026-04-22 17:01 53.54281 -2.09735 8022 ft 291 kts
2026-04-22 17:01 53.56332 -2.09795 8535 ft 299 kts
2026-04-22 17:01 53.58437 -2.09856 8975 ft 308 kts
2026-04-22 17:02 53.60623 -2.09916 8932 ft 314 kts
2026-04-22 17:02 53.62770 -2.09986 9039 ft 302 kts
2026-04-22 17:02 53.64804 -2.10054 9531 ft 288 kts
2026-04-22 17:02 53.66892 -2.10109 9796 ft 311 kts
2026-04-22 17:03 53.69059 -2.10170 10687 ft 311 kts
2026-04-22 17:03 53.71265 -2.10234 11183 ft 327 kts
2026-04-22 17:03 53.73615 -2.10294 11509 ft 347 kts
2026-04-22 17:03 53.76028 -2.09832 12137 ft 353 kts 17°
2026-04-22 17:04 53.78423 -2.08741 12795 ft 360 kts 18°
2026-04-22 17:04 53.80833 -2.07563 13696 ft 359 kts 18°
2026-04-22 17:04 53.83249 -2.06393 14557 ft 363 kts 18°
2026-04-22 17:04 53.85698 -2.05230 15265 ft 369 kts 17°
2026-04-22 17:05 53.88174 -2.04074 16110 ft 370 kts 18°
2026-04-22 17:05 53.90666 -2.02931 16898 ft 373 kts 16°
2026-04-22 17:05 53.93166 -2.01785 17888 ft 371 kts 16°
2026-04-22 17:05 53.95663 -2.00643 18711 ft 374 kts 16°
2026-04-22 17:06 53.98201 -1.99482 19286 ft 380 kts 15°
2026-04-22 17:06 54.00759 -1.98310 19980 ft 383 kts 15°
2026-04-22 17:06 54.03347 -1.97124 20641 ft 387 kts 13°
2026-04-22 17:06 54.05957 -1.95931 21300 ft 389 kts 13°
2026-04-22 17:07 54.08577 -1.94731 21995 ft 391 kts 13°
2026-04-22 17:07 54.11202 -1.93526 22727 ft 391 kts 12°
2026-04-22 17:07 54.13832 -1.92319 23481 ft 391 kts 13°
2026-04-22 17:07 54.16462 -1.91111 24091 ft 394 kts 13°
2026-04-22 17:08 54.19123 -1.89884 24551 ft 398 kts 14°
2026-04-22 17:08 54.21810 -1.88639 25021 ft 401 kts 12°
2026-04-22 17:08 54.24522 -1.87387 25481 ft 407 kts 12°
2026-04-22 17:08 54.27269 -1.86114 25921 ft 411 kts 12°
2026-04-22 17:09 54.30027 -1.84820 26439 ft 413 kts 14°
2026-04-22 17:09 54.32707 -1.82966 26911 ft 420 kts 25°
2026-04-22 17:09 54.34374 -1.81259 27221 ft 424 kts 31°
2026-04-22 17:09 54.37395 -1.76821 27817 ft 432 kts 42°
2026-04-22 17:10 54.39488 -1.73083 28242 ft 436 kts 44°
2026-04-22 17:10 54.41567 -1.69267 28649 ft 439 kts 44°
2026-04-22 17:10 54.43657 -1.65408 29056 ft 442 kts 44°
2026-04-22 17:10 54.45762 -1.61530 29477 ft 445 kts 44°
2026-04-22 17:11 54.47881 -1.57645 29988 ft 445 kts 43°
2026-04-22 17:11 54.50003 -1.53771 30464 ft 446 kts 43°
2026-04-22 17:11 54.52143 -1.49878 30720 ft 450 kts 43°
2026-04-22 17:11 54.54275 -1.46002 30997 ft 453 kts 43°
2026-04-22 17:12 54.56448 -1.42051 31318 ft 455 kts 43°
2026-04-22 17:12 54.58654 -1.38034 31645 ft 456 kts 43°
2026-04-22 17:12 54.60834 -1.34056 32013 ft 456 kts 43°
2026-04-22 17:12 54.63011 -1.30078 32452 ft 455 kts 44°
2026-04-22 17:13 54.65176 -1.26112 32923 ft 452 kts 44°
2026-04-22 17:13 54.67300 -1.22218 33342 ft 451 kts 44°
2026-04-22 17:13 54.69448 -1.18270 33726 ft 451 kts 44°
2026-04-22 17:13 54.71593 -1.14325 34116 ft 450 kts 44°
2026-04-22 17:14 54.73735 -1.10377 34526 ft 449 kts 44°
2026-04-22 17:14 54.75867 -1.06441 34874 ft 448 kts 45°
2026-04-22 17:14 54.77996 -1.02504 35165 ft 448 kts 45°
2026-04-22 17:14 54.80124 -0.98565 35477 ft 447 kts 45°
2026-04-22 17:15 54.81562 -0.95899 35687 ft 447 kts 45°
2026-04-22 17:15 54.84370 -0.90684 36089 ft 446 kts 45°
2026-04-22 17:15 54.86487 -0.86743 36365 ft 446 kts 46°
2026-04-22 17:15 54.88602 -0.82801 36655 ft 446 kts 45°
2026-04-22 17:16 54.90715 -0.78858 36932 ft 446 kts 45°
2026-04-22 17:16 54.92827 -0.74911 37224 ft 445 kts 45°
2026-04-22 17:16 54.94933 -0.70969 37485 ft 445 kts 46°
2026-04-22 17:16 54.97034 -0.67026 37779 ft 444 kts 45°
2026-04-22 17:17 54.99128 -0.63086 38063 ft 443 kts 46°
2026-04-22 17:17 55.01222 -0.59143 38361 ft 442 kts 47°
2026-04-22 17:17 55.03313 -0.55202 38553 ft 444 kts 47°
2026-04-22 17:17 55.05405 -0.51247 38777 ft 444 kts 47°
2026-04-22 17:18 55.07493 -0.47293 39081 ft 442 kts 47°
2026-04-22 17:18 55.09571 -0.43352 39352 ft 440 kts 47°
2026-04-22 17:18 55.11643 -0.39418 39502 ft 441 kts 47°
2026-04-22 17:18 55.13726 -0.35456 39489 ft 444 kts 47°
2026-04-22 17:19 55.22043 -0.19574 39503 ft 439 kts 47°
2026-04-22 17:20 55.30236 -0.03826 39503 ft 435 kts 48°
2026-04-22 17:21 55.36330 0.07956 39507 ft 434 kts 49°
2026-04-22 17:22 55.42423 0.19794 39512 ft 436 kts 48°
2026-04-22 17:23 55.48502 0.31666 39510 ft 438 kts 49°
2026-04-22 17:23 55.54632 0.43693 39510 ft 440 kts 49°
2026-04-22 17:24 55.58722 0.51754 39509 ft 441 kts 49°
2026-04-22 17:24 55.62819 0.59854 39512 ft 442 kts 49°
2026-04-22 17:25 55.66909 0.67969 39506 ft 442 kts 50°
2026-04-22 17:25 55.70991 0.76092 39507 ft 441 kts 50°
2026-04-22 17:26 55.75059 0.84219 39506 ft 440 kts 50°
2026-04-22 17:26 55.79113 0.92348 39501 ft 439 kts 50°
2026-04-22 17:27 55.83148 1.00465 39508 ft 438 kts 50°
2026-04-22 17:27 55.87175 1.08593 39510 ft 437 kts 50°
2026-04-22 17:28 55.91196 1.16708 39514 ft 437 kts 49°
2026-04-22 17:28 55.95560 1.24272 39510 ft 438 kts 44°
2026-04-22 17:29 56.00076 1.31566 39509 ft 437 kts 44°
2026-04-22 17:29 56.04563 1.38899 39510 ft 437 kts 44°
2026-04-22 17:30 56.09015 1.46305 39509 ft 437 kts 45°
2026-04-22 17:30 56.13447 1.53750 39511 ft 437 kts 45°
2026-04-22 17:31 56.17845 1.61171 39507 ft 437 kts 45°
2026-04-22 17:31 56.22268 1.68660 39506 ft 437 kts 45°
2026-04-22 17:32 56.26691 1.76173 39516 ft 437 kts 45°
2026-04-22 17:32 56.31107 1.83694 39488 ft 437 kts 46°
2026-04-22 17:33 56.35513 1.91225 39499 ft 436 kts 46°
2026-04-22 17:33 56.39910 1.98765 39501 ft 436 kts 46°
2026-04-22 17:34 56.44293 2.06307 39498 ft 435 kts 46°
2026-04-22 17:34 56.48666 2.13858 39493 ft 434 kts 46°
2026-04-22 17:35 56.52296 2.20144 39490 ft 434 kts 46°
2026-04-22 17:35 56.56649 2.27708 39487 ft 433 kts 47°
2026-04-22 17:36 56.60994 2.35282 39481 ft 432 kts 47°
2026-04-22 17:36 56.65324 2.42853 39475 ft 432 kts 47°
2026-04-22 17:37 56.69638 2.50422 39475 ft 430 kts 47°
2026-04-22 17:37 56.73936 2.57988 39466 ft 429 kts 47°
2026-04-22 17:38 56.78224 2.65564 39468 ft 429 kts 47°
2026-04-22 17:38 56.82499 2.73142 39451 ft 428 kts 48°
2026-04-22 17:39 56.86764 2.80727 39459 ft 427 kts 48°
2026-04-22 17:40 56.93144 2.92121 39459 ft 427 kts 48°
2026-04-22 17:40 56.97386 2.99732 39466 ft 427 kts 48°
2026-04-22 17:41 57.01622 3.07353 39470 ft 426 kts 48°
2026-04-22 17:41 57.05856 3.14999 39144 ft 432 kts 49°
2026-04-22 17:41 57.07995 3.18873 38608 ft 430 kts 49°
2026-04-22 17:42 57.10117 3.22716 38064 ft 427 kts 50°
2026-04-22 17:42 57.12226 3.26543 37502 ft 425 kts 50°
2026-04-22 17:42 57.14315 3.30339 37097 ft 419 kts 51°
2026-04-22 17:42 57.16381 3.34099 36663 ft 415 kts 51°
2026-04-22 17:43 57.18395 3.37771 36257 ft 411 kts 52°
2026-04-22 17:43 57.20415 3.41463 35856 ft 407 kts 52°
2026-04-22 17:43 57.22416 3.45127 35452 ft 403 kts 53°
2026-04-22 17:43 57.24399 3.48764 35054 ft 400 kts 53°
2026-04-22 17:44 57.26364 3.52374 34657 ft 397 kts 54°
2026-04-22 17:44 57.28314 3.55964 34231 ft 394 kts 54°
2026-04-22 17:44 57.30247 3.59528 33784 ft 391 kts 53°
2026-04-22 17:44 57.32160 3.63059 33390 ft 387 kts 53°
2026-04-22 17:45 57.34143 3.66447 32846 ft 391 kts 48°
2026-04-22 17:45 57.36273 3.69629 32254 ft 395 kts 46°
2026-04-22 17:45 57.38454 3.72742 31783 ft 395 kts 45°
2026-04-22 17:45 57.40632 3.75820 31388 ft 392 kts 45°
2026-04-22 17:46 57.42788 3.78881 31005 ft 389 kts 45°
2026-04-22 17:46 57.44924 3.81944 30603 ft 387 kts 45°
2026-04-22 17:46 57.47040 3.85007 30117 ft 384 kts 45°
2026-04-22 17:46 57.49133 3.88059 29686 ft 381 kts 45°
2026-04-22 17:47 57.51208 3.91097 29246 ft 378 kts 45°
2026-04-22 17:47 57.53260 3.94111 28807 ft 375 kts 45°
2026-04-22 17:47 57.55301 3.97118 28372 ft 372 kts 44°
2026-04-22 17:47 57.57323 4.00103 27952 ft 370 kts 44°
2026-04-22 17:48 57.59330 4.03070 27525 ft 367 kts 44°
2026-04-22 17:48 57.61327 4.06028 27064 ft 366 kts 44°
2026-04-22 17:48 57.63315 4.08977 26656 ft 364 kts 44°
2026-04-22 17:48 57.65288 4.11906 26266 ft 361 kts 43°
2026-04-22 17:49 57.67244 4.14813 25890 ft 358 kts 43°
2026-04-22 17:49 57.69186 4.17706 25508 ft 356 kts 43°
2026-04-22 17:49 57.71119 4.20587 25135 ft 354 kts 43°
2026-04-22 17:49 57.73037 4.23451 24762 ft 352 kts 43°
2026-04-22 17:50 57.74940 4.26295 24440 ft 348 kts 43°
2026-04-22 17:50 57.76820 4.29109 24103 ft 345 kts 42°
2026-04-22 17:50 57.78691 4.31914 23681 ft 343 kts 43°
2026-04-22 17:50 57.80548 4.34702 23280 ft 341 kts 42°
2026-04-22 17:51 57.82390 4.37471 22887 ft 338 kts 43°
2026-04-22 17:51 57.84210 4.40210 22528 ft 334 kts 41°
2026-04-22 17:51 57.86024 4.42946 22018 ft 335 kts 41°
2026-04-22 17:51 57.87832 4.45682 21649 ft 332 kts 40°
2026-04-22 17:52 57.89627 4.48397 21224 ft 331 kts 40°
2026-04-22 17:52 57.91420 4.51111 20835 ft 329 kts 39°
2026-04-22 17:52 57.93189 4.53792 20496 ft 326 kts 39°
2026-04-22 17:52 57.94963 4.56484 20015 ft 328 kts 39°
2026-04-22 17:53 57.96748 4.59195 19377 ft 334 kts 37°
2026-04-22 17:53 57.98575 4.61971 18731 ft 340 kts 37°
2026-04-22 17:53 58.00432 4.64795 17994 ft 346 kts 36°
2026-04-22 17:53 58.02311 4.67661 17247 ft 350 kts 37°
2026-04-22 17:54 58.04214 4.70567 16528 ft 353 kts 35°
2026-04-22 17:54 58.06085 4.73430 16247 ft 345 kts 37°
2026-04-22 17:54 58.07937 4.76274 16104 ft 332 kts 36°
2026-04-22 17:54 58.09706 4.78993 15707 ft 326 kts 35°
2026-04-22 17:55 58.11433 4.81643 15067 ft 323 kts 37°
2026-04-22 17:55 58.13167 4.84308 14452 ft 319 kts 36°
2026-04-22 17:55 58.14881 4.86949 13796 ft 316 kts 36°
2026-04-22 17:55 58.16560 4.89543 13371 ft 305 kts 37°
2026-04-22 17:56 58.18178 4.92042 12993 ft 295 kts 35°
2026-04-22 17:56 58.19737 4.94455 12682 ft 284 kts 36°
2026-04-22 17:56 58.21258 4.96807 12369 ft 281 kts 36°
2026-04-22 17:56 58.22769 4.99144 12054 ft 279 kts 34°
2026-04-22 17:57 58.24266 5.01461 11744 ft 277 kts 34°
2026-04-22 17:57 58.25753 5.03770 11433 ft 276 kts 36°
2026-04-22 17:57 58.27234 5.06071 11120 ft 274 kts 35°
2026-04-22 17:57 58.28704 5.08358 10822 ft 272 kts 37°
2026-04-22 17:58 58.30164 5.10629 10579 ft 269 kts 34°
2026-04-22 17:58 58.31584 5.12848 10457 ft 260 kts 34°
2026-04-22 17:58 58.32970 5.15011 10210 ft 258 kts 35°
2026-04-22 17:58 58.34350 5.17165 9921 ft 256 kts 37°
2026-04-22 17:59 58.35722 5.19313 9635 ft 254 kts 36°
2026-04-22 17:59 58.37082 5.21441 9357 ft 252 kts 36°
2026-04-22 17:59 58.38433 5.23558 9071 ft 251 kts 34°
2026-04-22 17:59 58.39774 5.25665 8801 ft 249 kts 34°
2026-04-22 18:00 58.40655 5.27050 8622 ft 248 kts 34°
2026-04-22 18:00 58.42429 5.29833 8265 ft 246 kts 36°
2026-04-22 18:00 58.43743 5.31901 8001 ft 244 kts 36°
2026-04-22 18:00 58.45047 5.33956 7746 ft 242 kts 36°
2026-04-22 18:01 58.46349 5.36009 7486 ft 243 kts 35°
2026-04-22 18:01 58.47667 5.38084 7236 ft 248 kts 36°
2026-04-22 18:01 58.49009 5.40204 6981 ft 252 kts 35°
2026-04-22 18:01 58.50358 5.42338 6708 ft 251 kts 35°
2026-04-22 18:02 58.51698 5.44461 6386 ft 250 kts 36°
2026-04-22 18:02 58.53063 5.46620 5903 ft 256 kts 34°
2026-04-22 18:02 58.54576 5.48285 5564 ft 248 kts 13°
2026-04-22 18:02 58.56258 5.48882 5248 ft 245 kts
2026-04-22 18:03 58.57948 5.49206 4946 ft 243 kts
2026-04-22 18:03 58.59626 5.49499 4656 ft 241 kts
2026-04-22 18:03 58.61284 5.49802 4416 ft 237 kts
2026-04-22 18:03 58.62913 5.50116 4157 ft 234 kts
2026-04-22 18:04 58.64528 5.50435 3887 ft 232 kts
2026-04-22 18:04 58.66123 5.50755 3682 ft 227 kts
2026-04-22 18:04 58.67655 5.51066 3593 ft 216 kts
2026-04-22 18:04 58.69099 5.51378 3508 ft 202 kts
2026-04-22 18:05 58.70325 5.52520 3408 ft 195 kts 35°
2026-04-22 18:05 58.71215 5.54509 3314 ft 201 kts 54°
2026-04-22 18:05 58.71728 5.56956 3215 ft 193 kts 61°
2026-04-22 18:05 58.72199 5.59347 3035 ft 189 kts 60°
2026-04-22 18:06 58.72672 5.61721 2862 ft 190 kts 59°
2026-04-22 18:06 58.73417 5.63574 2696 ft 165 kts 21°
2026-04-22 18:06 58.74458 5.63823 2596 ft 146 kts 357°
2026-04-22 18:06 58.75453 5.64038 2399 ft 141 kts
2026-04-22 18:07 58.76095 5.64113 2288 ft 140 kts 359°
2026-04-22 18:07 58.77345 5.64095 2040 ft 128 kts 357°
2026-04-22 18:07 58.78248 5.64069 1852 ft 132 kts 356°
2026-04-22 18:07 58.79173 5.64041 1702 ft 132 kts 356°
2026-04-22 18:08 58.80090 5.64012 1500 ft 132 kts 356°
2026-04-22 18:08 58.80986 5.63985 1293 ft 124 kts 357°
2026-04-22 18:08 58.81817 5.63963 1138 ft 120 kts 356°
2026-04-22 18:08 58.82648 5.63937 967 ft 118 kts 355°
2026-04-22 18:09 58.83456 5.63911 801 ft 116 kts 354°
2026-04-22 18:09 58.84325 5.63878 629 ft 132 kts 355°
2026-04-22 18:09 58.85226 5.63866 443 ft 128 kts 354°
2026-04-22 18:09 58.86091 5.63843 283 ft 126 kts 356°
2026-04-22 18:10 58.86961 5.63812 123 ft 124 kts 356°
2026-04-22 18:10 58.87783 5.63778 43 ft 107 kts 353°
2026-04-22 18:10 58.88400 5.63759 29 ft 61 kts 359°
2026-04-22 18:10 58.88628 5.63752 28 ft 26 kts 358°
2026-04-22 18:11 58.88708 5.63539 30 ft 5 kts 267°
2026-04-22 18:11 58.88698 5.63436 31 ft 13 kts 244°
2026-04-22 18:11 58.88681 5.63397 29 ft 1 kts 212°
2026-04-22 18:11 58.88645 5.63393 30 ft 9 kts 169°
2026-04-22 18:12 58.88542 5.63424 30 ft 21 kts 179°
2026-04-22 18:12 58.88389 5.63427 30 ft 16 kts 179°
2026-04-22 18:12 58.88314 5.63429 30 ft 16 kts 180°
2026-04-22 18:12 58.88167 5.63430 29 ft 15 kts 180°
2026-04-22 18:13 58.88062 5.63438 29 ft 15 kts 174°
2026-04-22 18:13 58.88002 5.63330 29 ft 14 kts 284°
2026-04-22 18:13 58.88046 5.63172 27 ft 1 kts 276°
2026-04-22 18:13 58.88041 5.63140 27 ft 4 kts 249°
2026-04-22 18:14 58.88011 5.63049 27 ft 12 kts 237°
2026-04-22 18:14 58.87990 5.62846 27 ft 19 kts 279°
2026-04-22 18:14 58.88020 5.62664 26 ft 9 kts 328°
2026-04-22 18:14 58.88053 5.62668 24 ft 0 kts 19°
2026-04-22 18:15 58.88056 5.62670 24 ft 2 kts 17°
2026-04-22 18:15 58.88074 5.62679 28 ft 0 kts 15°